Location: Unspecified
(0.0000°N, 0.0000°E)
Time: 14:24:38
(UTC+00:00)

Explorer 11/Cluster Stage 4 - Pass Details

Date: 29 February 2024
Orbit: 465 x 1219 km, 28.8° (Epoch: 24 April)

Event Time Altitude Azimuth Distance (km) Brightness Sun altitude
Rises 19:59:44 0° 255° (WSW) 3,292 11.1 -26.6°
Reaches altitude 10° 20:02:10 10° 262° (W) 2,477 10.1 -27.2°
Maximum altitude 20:07:52 43° 332° (NNW) 1,349 7.8 -28.6°
Enters shadow 20:09:19 38° 3° (N) 1,491 7.8 -29.0°
